Location: Dodgeville, WI 53533, USA
(43.0344°N, 90.0900°W)
Time: 23:29:13
(UTC-06:00)

ISS - Pass Details

Date: 25 January 2021
Orbit: 417 x 422 km, 51.6° (Epoch: 08 March)

Event Time Altitude Azimuth Distance (km) Brightness Sun altitude
Rises 18:44:37 0° 286° (WNW) 2,371 1.3 -18.3°
Reaches altitude 10° 18:47:07 10° 304° (NW) 1,508 -0.3 -18.8°
Maximum altitude 18:49:40 20° 353° (N) 1,059 -1.8 -19.2°
Enters shadow 18:49:55 19° 359° (N) 1,064 -1.8 -19.3°
